When you browse on this site, cookies collect data to enhance your experience and personalize the content and advertising you see.
Visit our Privacy Policy to learn more. By continuing to use the site, you agree to this use of cookies and data.
  • In Schweiz
  • Länderverzeichnis
  • Für 7 Tage
  • Wassertemperatur
  • Satellitenkarten
  • Wetterkarte
  • Widgets
  • user-avatar
    Anmelden

    Stündliche Wetter Plebanivka

    Heute, 21 Februar, Donnerstag

    Zeit Temperatur Niederschläge Wind Luftdruck Luftfeuchtigkeit
    00:00 +1°C° 0 mm 5 m/S 735 mmHg 79%
    01:00 +1°C° 0 mm 6 m/S 735 mmHg 79%
    02:00 +1°C° 0 mm 6 m/S 735 mmHg 78%
    03:00 -1°C° 0 mm 6 m/S 736 mmHg 80%
    04:00 -1°C° 0 mm 6 m/S 736 mmHg 81%
    05:00 -2°C° 0 mm 6 m/S 736 mmHg 82%
    06:00 -2°C° 0 mm 6 m/S 736 mmHg 82%
    07:00 -2°C° 0 mm 6 m/S 736 mmHg 82%
    08:00 -2°C° 0 mm 6 m/S 737 mmHg 83%
    09:00 -2°C° 0 mm 7 m/S 737 mmHg 75%
    10:00 -1°C° 0 mm 7 m/S 737 mmHg 68%
    11:00 0°C° 0 mm 8 m/S 737 mmHg 61%
    12:00 +1°C° 0 mm 8 m/S 737 mmHg 61%
    13:00 +1°C° 0 mm 8 m/S 737 mmHg 61%
    14:00 +1°C° 0 mm 8 m/S 737 mmHg 61%
    15:00 +2°C° 0 mm 7 m/S 737 mmHg 64%
    16:00 +2°C° 0 mm 6 m/S 737 mmHg 67%
    17:00 +2°C° 0 mm 5 m/S 737 mmHg 70%
    18:00 +1°C° 0.1 mm 5 m/S 737 mmHg 75%
    19:00 +1°C° 0.1 mm 4 m/S 737 mmHg 81%
    20:00 +2°C° 0.1 mm 3 m/S 737 mmHg 87%
    21:00 +3°C° 0.2 mm 2 m/S 737 mmHg 89%
    22:00 +3°C° 0.2 mm 2 m/S 737 mmHg 91%
    23:00 +4°C° 0.2 mm 1 m/S 737 mmHg 93%

    Morgen, 22 Februar, Freitag

    Zeit Temperatur Niederschläge Wind Luftdruck Luftfeuchtigkeit
    00:00 +3°C° 0.6 mm 1 m/S 736 mmHg 93%
    01:00 +3°C° 0.6 mm 1 m/S 736 mmHg 93%
    02:00 +3°C° 0.6 mm 1 m/S 736 mmHg 92%
    03:00 +2°C° 0.9 mm 2 m/S 735 mmHg 93%
    04:00 +1°C° 0.9 mm 2 m/S 735 mmHg 93%
    05:00 +1°C° 0.9 mm 2 m/S 734 mmHg 93%
    06:00 -2°C° 0.7 mm 4 m/S 734 mmHg 93%
    07:00 -4°C° 0.7 mm 5 m/S 734 mmHg 93%
    08:00 -5°C° 0.7 mm 6 m/S 735 mmHg 92%
    09:00 -6°C° 0.5 mm 6 m/S 735 mmHg 90%
    10:00 -7°C° 0.5 mm 7 m/S 736 mmHg 88%
    11:00 -7°C° 0.5 mm 7 m/S 736 mmHg 86%
    12:00 -7°C° 0.1 mm 7 m/S 737 mmHg 81%
    13:00 -7°C° 0.1 mm 7 m/S 738 mmHg 76%
    14:00 -7°C° 0.1 mm 7 m/S 739 mmHg 71%
    15:00 -8°C° 0 mm 7 m/S 739 mmHg 70%
    16:00 -9°C° 0 mm 6 m/S 740 mmHg 68%
    17:00 -10°C° 0 mm 6 m/S 740 mmHg 67%
    18:00 -10°C° 0 mm 6 m/S 741 mmHg 68%
    19:00 -11°C° 0 mm 5 m/S 741 mmHg 69%
    20:00 -11°C° 0 mm 5 m/S 742 mmHg 70%
    21:00 -12°C° 0 mm 5 m/S 742 mmHg 71%
    22:00 -12°C° 0 mm 5 m/S 743 mmHg 72%
    23:00 -12°C° 0 mm 5 m/S 743 mmHg 72%

    übermorgen, 23 Februar, Samstag

    Zeit Temperatur Niederschläge Wind Luftdruck Luftfeuchtigkeit
    00:00 -12°C° 0 mm 6 m/S 743 mmHg 73%
    01:00 -12°C° 0 mm 6 m/S 744 mmHg 73%
    02:00 -12°C° 0 mm 6 m/S 744 mmHg 73%
    03:00 -12°C° 0 mm 6 m/S 744 mmHg 73%
    04:00 -12°C° 0 mm 6 m/S 744 mmHg 73%
    05:00 -12°C° 0 mm 6 m/S 745 mmHg 73%
    06:00 -12°C° 0 mm 6 m/S 745 mmHg 73%
    07:00 -12°C° 0 mm 6 m/S 746 mmHg 72%
    08:00 -12°C° 0 mm 6 m/S 746 mmHg 72%
    09:00 -12°C° 0 mm 6 m/S 746 mmHg 71%
    10:00 -13°C° 0 mm 7 m/S 747 mmHg 69%
    11:00 -12°C° 0 mm 7 m/S 747 mmHg 68%
    12:00 -12°C° 0 mm 7 m/S 747 mmHg 68%
    13:00 -11°C° 0 mm 7 m/S 747 mmHg 67%
    14:00 -11°C° 0 mm 7 m/S 747 mmHg 67%
    15:00 -10°C° 0 mm 6 m/S 747 mmHg 68%
    16:00 -10°C° 0 mm 6 m/S 747 mmHg 68%
    17:00 -10°C° 0 mm 5 m/S 747 mmHg 69%
    18:00 -11°C° 0 mm 5 m/S 747 mmHg 71%
    19:00 -10°C° 0 mm 4 m/S 748 mmHg 73%
    20:00 -11°C° 0 mm 4 m/S 748 mmHg 75%
    21:00 -11°C° 0 mm 4 m/S 748 mmHg 75%
    22:00 -11°C° 0 mm 4 m/S 748 mmHg 75%
    23:00 -11°C° 0 mm 4 m/S 748 mmHg 75%

    24 Februar, Sonntag

    Zeit Temperatur Niederschläge Wind Luftdruck Luftfeuchtigkeit
    00:00 -11°C° 0 mm 4 m/S 748 mmHg 77%
    01:00 -12°C° 0 mm 4 m/S 748 mmHg 78%
    02:00 -12°C° 0 mm 3 m/S 748 mmHg 79%
    03:00 -12°C° 0 mm 3 m/S 747 mmHg 80%
    04:00 -12°C° 0 mm 3 m/S 747 mmHg 81%
    05:00 -12°C° 0 mm 3 m/S 747 mmHg 82%
    06:00 -12°C° 0 mm 3 m/S 747 mmHg 81%
    07:00 -12°C° 0 mm 4 m/S 747 mmHg 81%
    08:00 -12°C° 0 mm 4 m/S 747 mmHg 80%
    09:00 -11°C° 0 mm 4 m/S 747 mmHg 75%
    10:00 -10°C° 0 mm 4 m/S 747 mmHg 70%
    11:00 -8°C° 0 mm 4 m/S 747 mmHg 64%
    12:00 -8°C° 0 mm 4 m/S 747 mmHg 63%
    13:00 -7°C° 0 mm 4 m/S 746 mmHg 61%
    14:00 -5°C° 0 mm 4 m/S 746 mmHg 59%
    15:00 -5°C° 0 mm 4 m/S 745 mmHg 63%
    16:00 -7°C° 0 mm 4 m/S 745 mmHg 67%
    17:00 -7°C° 0 mm 4 m/S 745 mmHg 71%
    18:00 -6°C° 0 mm 3 m/S 745 mmHg 74%
    19:00 -6°C° 0 mm 3 m/S 744 mmHg 78%
    20:00 -6°C° 0 mm 3 m/S 744 mmHg 81%
    21:00 -6°C° 0.1 mm 3 m/S 744 mmHg 82%
    22:00 -6°C° 0.1 mm 3 m/S 743 mmHg 83%
    23:00 -6°C° 0.1 mm 3 m/S 743 mmHg 83%

    25 Februar, Montag

    Zeit Temperatur Niederschläge Wind Luftdruck Luftfeuchtigkeit
    00:00 -6°C° 0 mm 3 m/S 743 mmHg 83%
    01:00 -5°C° 0 mm 2 m/S 742 mmHg 82%
    02:00 -5°C° 0 mm 2 m/S 742 mmHg 81%
    03:00 -4°C° 0 mm 2 m/S 741 mmHg 82%
    04:00 -4°C° 0 mm 2 m/S 741 mmHg 82%
    05:00 -4°C° 0 mm 2 m/S 740 mmHg 83%
    06:00 -4°C° 0 mm 2 m/S 740 mmHg 82%
    07:00 -5°C° 0 mm 3 m/S 740 mmHg 82%
    08:00 -5°C° 0 mm 3 m/S 739 mmHg 82%
    09:00 -4°C° 0 mm 3 m/S 739 mmHg 83%
    10:00 -4°C° 0 mm 3 m/S 739 mmHg 83%
    11:00 -2°C° 0 mm 3 m/S 738 mmHg 84%
    12:00 -2°C° 0.5 mm 3 m/S 738 mmHg 86%
    13:00 -3°C° 0.5 mm 4 m/S 738 mmHg 89%
    14:00 -2°C° 0.5 mm 4 m/S 738 mmHg 91%
    15:00 -2°C° 0.2 mm 4 m/S 738 mmHg 91%
    16:00 -2°C° 0.2 mm 5 m/S 737 mmHg 91%
    17:00 -2°C° 0.2 mm 6 m/S 737 mmHg 90%
    18:00 -2°C° 0.1 mm 7 m/S 738 mmHg 88%
    19:00 -2°C° 0.1 mm 7 m/S 738 mmHg 85%
    20:00 -2°C° 0.1 mm 8 m/S 738 mmHg 83%
    21:00 -4°C° 0 mm 8 m/S 739 mmHg 82%
    22:00 -4°C° 0 mm 8 m/S 739 mmHg 82%
    23:00 -4°C° 0 mm 7 m/S 739 mmHg 81%

    26 Februar, Dienstag

    Zeit Temperatur Niederschläge Wind Luftdruck Luftfeuchtigkeit
    00:00 -4°C° 0 mm 7 m/S 739 mmHg 83%
    01:00 -5°C° 0 mm 6 m/S 739 mmHg 85%
    02:00 -5°C° 0 mm 6 m/S 739 mmHg 87%
    03:00 -5°C° 0 mm 6 m/S 739 mmHg 88%
    04:00 -5°C° 0 mm 6 m/S 738 mmHg 89%
    05:00 -4°C° 0 mm 6 m/S 738 mmHg 90%
    06:00 -4°C° 0 mm 6 m/S 738 mmHg 89%
    07:00 -4°C° 0 mm 6 m/S 737 mmHg 88%
    08:00 -4°C° 0 mm 7 m/S 737 mmHg 87%
    09:00 -4°C° 0 mm 6 m/S 737 mmHg 87%
    10:00 -3°C° 0 mm 6 m/S 736 mmHg 86%
    11:00 -3°C° 0 mm 6 m/S 736 mmHg 85%
    12:00 -3°C° 0 mm 6 m/S 735 mmHg 85%
    13:00 -3°C° 0 mm 6 m/S 735 mmHg 85%
    14:00 -3°C° 0 mm 6 m/S 734 mmHg 86%
    15:00 -2°C° 0 mm 6 m/S 734 mmHg 86%
    16:00 -2°C° 0 mm 6 m/S 734 mmHg 86%
    17:00 -2°C° 0 mm 6 m/S 733 mmHg 86%
    18:00 -2°C° 0 mm 6 m/S 733 mmHg 86%
    19:00 -2°C° 0 mm 6 m/S 733 mmHg 86%
    20:00 -3°C° 0 mm 6 m/S 732 mmHg 87%
    21:00 -2°C° 0 mm 7 m/S 731 mmHg 87%
    22:00 -2°C° 0 mm 7 m/S 730 mmHg 87%
    23:00 -2°C° 0 mm 8 m/S 729 mmHg 88%
    Mehr zeigen